Regional Weather Roundup
Issued by NWS Grand Forks, ND

Home | Current Version | Previous Version | Text Only | Print | Product List | Glossary On
Versions: 1 2 3 4 5 6 7 8 9 10 11 12 13 14 15 16 17 18 19 20 21 22 23 24 25 26 27 28 29 30 31 32 33 34 35 36 37 38 39 40 41 42 43 44 45 46 47 48 49 50
000
ASUS43 KFGF 251131
RWRFGF
PRAIRIE TO PINES  WEATHER ROUNDUP
NATIONAL WEATHER SERVICE EASTERN NORTH DAKOTA/GRAND FORKS ND
600 AM CDT SAT APR 25 2015

 **SATELLITE DATA USED TO AUGMENT SKY COVER AT AUTOMATED STATIONS**
 *****  WEATHER ACROSS EASTERN NORTH DAKOTA  *****

CITY           SKY/WX    TMP DP  RH WIND       PRES   REMARKS
GRAND FORKS    CLOUDY    44  32  62 E10       29.85S
GRAND FRKS AFB CLOUDY    41  32  70 E7        29.85R
GRAND FRKS NWS   N/A     41 N/A N/A E9          N/A
DEVILS LAKE    CLOUDY    43  36  75 E8        29.82R
FARGO          CLOUDY    43  36  76 E9        29.81R
WAHPETON ARPT  CLOUDY    43  37  81 E8        29.80R
$$

 ***** WEATHER ACROSS CENTRAL AND WESTERN NORTH DAKOTA  *****

CITY           SKY/WX    TMP DP  RH WIND       PRES   REMARKS
BISMARCK       CLOUDY    44  41  89 E7        29.76R
MINOT          CLOUDY    34  32  92 E5        29.78S FOG
JAMESTOWN      CLOUDY    42  39  89 E14       29.78S FOG
MINOT AFB      FOG       32  32 100 SE7       29.78R VSB 1/4
GARRISON         N/A     42  40  92 E7        29.76R
WILLISTON      MOCLDY    47  40  76 E8        29.70R
DICKINSON      FOG       42  41  96 SE12      29.70R VSB 1/4
HETTINGER      FOG       42  40  92 E10       29.71S VSB 1/4
$$

 *****  OTHER AIRPORT OBSERVATIONS IN OUR AREA  *****

CITY           SKY/WX    TMP DP  RH WIND       PRES   REMARKS
WALHALLA       FAIR      28  28 100 NW6       29.89R WCI  22
GRAFTON AIRPOR PTSUNNY   39  32  75 E8        29.87S
VALLEY CITY AR CLOUDY    39  39 100 E9        29.80S
CANDO          CLOUDY    39  36  87 E9        29.84R
CAVALIER APRT  FAIR      37  32  81 CALM      29.88R
GWINNER        CLOUDY    43  43 100 E13       29.79R
SHEYENNE NWR     N/A     42  42  98 E9        29.95S
ROLLA          FAIR      34  34 100 E5        29.84S
 ***** THE ABOVE OBSERVATIONS ARE NON NWS ARE NOT QUALITY
       CONTROLLED AND MAY MIS-REPORT RAIN FOR SNOW...
$$

  *****  WEATHER ACROSS NORTHERN MINNESOTA  *****

CITY           SKY/WX    TMP DP  RH WIND       PRES   REMARKS
FLAG ISLAND    CLOUDY    39  27  60 SE6       29.93S
WARROAD        CLOUDY    37  28  70 E8        29.93R
ROSEAU         CLOUDY    39  28  65 E8        29.91S
HALLOCK        CLOUDY    41  32  70 E8        29.88R
THF RVR FALLS  CLOUDY    41  28  60 E9        29.88R
BAUDETTE       CLOUDY    37  23  56 E9        29.92S
WASKISH        CLOUDY    37  21  52 CALM      29.92R
CROOKSTON      CLOUDY    43  32  65 E10       29.87R
$$
  *****  WEATHER ACROSS CENTRAL AND WEST MINNESOTA  *****

CITY           SKY/WX    TMP DP  RH WIND       PRES   REMARKS
FOSSTON        CLOUDY    39  28  65 E7        29.86S
BEMIDJI        CLOUDY    38  26  62 E8        29.88R
PARK RAPIDS    CLOUDY    40  30  67 E9        29.84S
ELBOW LAKE     CLOUDY    42  40  93 E14       29.78R
WADENA         CLOUDY    37  32  81 E9        29.82S
DETROIT LAKES  MOCLDY    41  34  75 E8        29.83R
MOORHEAD       CLOUDY    43  36  75 E8        29.83R
FERGUS FALLS   CLOUDY    43  37  81 E9G16     29.81R
MORRIS MN      CLOUDY    43  41  93 E15       29.76R
STAPLES        CLOUDY    37  32  81 E6        29.84S
$$
  *****  WEATHER ELSEWHERE ACROSS MINNESOTA  *****

CITY           SKY/WX    TMP DP  RH WIND       PRES   REMARKS
DULUTH         CLOUDY    34  24  67 E10       29.93R
INTRNTL FALLS  CLOUDY    36  19  50 E6        29.95R
ELY            CLOUDY    34  10  37 NE3       29.96R
CLOQUET        CLOUDY    34  27  75 E12       29.92R
WHEATON        CLOUDY    39  39 100 E9        29.79R FOG
BRAINERD       CLOUDY    38  31  76 E7        29.86R
HIBBING        CLOUDY    37  16  42 E7        29.92R
ALEXANDRIA     LGT RAIN  41  39  93 E15G22    29.79S FOG
SAINT CLOUD    CLOUDY    42  37  82 E8        29.81F
MINNEAPOLIS    CLOUDY    43  37  79 E14       29.81S
$$

  *****  WEATHER ACROSS SOUTH DAKOTA  *****

CITY           SKY/WX    TMP DP  RH WIND       PRES   REMARKS
SIOUX FALLS    CLOUDY    45  42  89 E15       29.64R
BROOKINGS      CLOUDY    43  43 100 E14       29.68R
WATERTOWN      CLOUDY    42  40  92 E10       29.68R FOG
HURON          CLOUDY    47  45  93 NE10      29.66R
SISSETON         N/A     43  42  97 SE12      29.75R
ABERDEEN       CLOUDY    45  41  86 NE10      29.73R
MITCHELL       LGT RAIN  50  48  93 E8        29.64R
PIERRE         CLOUDY    47  45  93 NE13      29.64R FOG
MOBRIDGE       CLOUDY    45  43  93 NE10      29.70R FOG
RAPID CITY     PTCLDY    40  37  89 NW8       29.66R
$$

  *****  SOME WEATHER IN NEARBY STATES *****

CITY           SKY/WX    TMP DP  RH WIND       PRES   REMARKS
GLASGOW MT     MOCLDY    48  36  63 NW10      29.59F
GREAT FALLS MT CLOUDY    38  36  92 SW16      29.75S
CHEYENNE WY    CLOUDY    43  30  60 N6        29.74R
SCOTTSBLUFF NE CLEAR     40  32  73 NW8       29.67S
OMAHA NE       LGT RAIN  51  50  96 E13       29.49R
DES MOINES IA  RAIN      47  43  86 E12G20    29.59R FOG
DAVENPORT IA   LGT RAIN  43  39  86 E15       29.69F
CHICAGO IL     CLOUDY    43  37  79 E12       29.80R
EAU CLAIRE WI  CLOUDY    40  31  70 E12       29.86F
LA CROSSE WI   CLOUDY    42  36  79 E6        29.82S
$$

  *****  SOME NATIONAL WEATHER *****

CITY           SKY/WX    TMP DP  RH WIND       PRES   REMARKS
LA GUARDIA NY  PTCLDY    39  23  52 W10       29.91S
RALEIGH NC     CLOUDY    50  43  77 CALM      29.93R
ATLANTA GA     TSTM      61  55  82 N14       29.89S FOG
NEW ORLEANS LA MOCLDY    77  72  84 S9        29.80F
OKLAHOMA CITY  CLEAR     54  44  69 W6        29.60R
ALBUQUERQUE NM PTCLDY    48  33  56 S7        29.97S
SALT LAKE CITY MOCLDY    44  39  82 CALM      29.83S
LOS ANGELES CA PTCLDY    57  51  80 W3        29.99S
BOISE ID       MOCLDY    43  33  68 CALM      29.79R
SEATTLE WA     LGT RAIN  43  39  87 NE12      29.91R
$$

*** WEATHER ACROSS MANITOBA...SASKATCHEWAN AND ONTARIO ***
                ***ONTARIO***

CITY           SKY/WX    TMP DP  RH WIND       PRES   REMARKS
GERALDTON      PTCLDY    16  14  93 CALM      30.07S
THUNDER BAY    PTCLDY    27  23  86 CALM      30.07R
SIOUX LOOKOUT  MOCLDY    32  19  59 E3        30.02R
TORONTO        PTCLDY    30  21  69 NW6       30.00R WCI  24
BIG TROUT LK   CLEAR      7   7 100 NE2       30.16R
PICKLE LAKE    PTCLDY    19  14  79 E3        30.07
DRYDEN         CLOUDY    34  27  75 E5        30.00R
KENORA         CLOUDY    37  25  60 E7        29.96R
$$
                *** MANITOBA***

CITY           SKY/WX    TMP DP  RH WIND       PRES   REMARKS
BRANDON        PTCLDY    28  27  93 E7        29.87R WCI  21
DAUPHIN        MOCLDY    34  30  86 SE6       29.89R
ISLAND LAKE    CLEAR     25  12  58 E6        30.05S WCI  18
PILOT MOUND      N/A     28  27  93 E7          N/A  WCI  21
THE PAS        CLOUDY    27  23  86 N9        29.98R WCI  17
THOMPSON       CLOUDY    25  23  93 NE8       30.04R WCI  16
WINNIPEG       PTCLDY    34  27  75 E3        29.92R
CHURCHILL      MOCLDY    14   9  79 SE7       30.23R WCI   4
GILLAM         LGT SNOW  21  18  86 E6        30.14S WCI  14
$$
                ***SASKATCHEWAN***

CITY           SKY/WX    TMP DP  RH WIND       PRES   REMARKS
ESTEVAN        CLOUDY    43  39  87 E12       29.76R
KINDERSLEY     CLOUDY    30  28  93 NE26      29.75R WCI  16
LLOYDMINSTER   CLOUDY    30  27  86 E15G21    29.87R WCI  19
PRINCE ALBERT  CLOUDY    27  21  80 NE17      29.94S WCI  14
REGINA         LGT RAIN  45  41  87 E16       29.73R
YORKTON        MOCLDY    41  37  87 E7        29.83R
N. BATTLEFORD  CLOUDY    28  27  93 E12G17    29.89S WCI  18
LA RONGE       PTCLDY    19  16  86 N6        30.06R WCI  11
SASKATOON      CLOUDY    28  25  86 NE18G28   29.86R WCI  16
SWIFT CURRENT  LGT RAIN  36  34  93 VRB7      29.70R
$$
NOTE: THESE ARE AUTOMATED STATIONS WITH LIMITED QUALITY CONTROL
      "FAIR" INDICATES FEW OR NO CLOUDS BELOW 12,000 FEET WITH NO
      SIGNIFICANT WEATHER AND/OR OBSTRUCTIONS TO VISIBILITY.
      SKY/WX - SKY CONDITION AND SIGNIFICANT WEATHER.
      TMP - AIR TEMPERATURE.    DP   - DEWPOINT TEMPERATURE.
      RH  - RELATIVE HUMIDITY.  PRES - PRESSURE.
      HX  - HEAT INDEX.         WCI  - WIND CHILL INDEX.
$



USA.gov is the U.S. government's official web portal to all federal, state and local government web resources and services.